Location: Heidgraben
(53.7081°N, 9.6576°E)
Time: 04:44:50
(UTC+00:00)

Cosmos 1500 Rocket - Pass Details

Date: 05 July 2020
Orbit: 602 x 632 km, 82.5° (Epoch: 06 August)

Event Time Altitude Azimuth Distance (km) Brightness Sun altitude
Exits shadow 23:44:49 22° 183° (S) 1,382 4.7 -13.5°
Maximum altitude 23:47:40 78° 100° (E) 640 3.6 -13.5°
Drops below altitude 10° 23:52:05 10° 13° (NNE) 1,990 7.6 -13.4°
Sets 23:54:18 0° 13° (NNE) 2,895 9.0 -13.4°
